TimeCDT,TemperatureF,Dew PointF,Humidity,Sea Level PressureIn,VisibilityMPH,Wind Direction,Wind SpeedMPH,Gust SpeedMPH,PrecipitationIn,Events,Conditions,WindDirDegrees,DateUTC
12:15 AM,69.4,60.1,72,29.87,10.0,ESE,5.8,-,N/A,,Clear,110,2013-09-24 05:15:00
12:35 AM,69.1,60.1,73,29.87,10.0,Calm,Calm,-,N/A,,Clear,0,2013-09-24 05:35:00
12:55 AM,69.8,59.9,71,29.87,10.0,Calm,Calm,-,N/A,,Scattered Clouds,0,2013-09-24 05:55:00
1:15 AM,69.3,59.9,72,29.88,10.0,Calm,Calm,-,N/A,,Clear,0,2013-09-24 06:15:00
1:35 AM,69.6,59.9,71,29.88,10.0,Calm,Calm,-,N/A,,Clear,0,2013-09-24 06:35:00
1:55 AM,69.4,60.4,73,29.88,10.0,Calm,Calm,-,N/A,,Mostly Cloudy,0,2013-09-24 06:55:00
2:35 AM,68.9,60.8,75,29.89,10.0,Calm,Calm,-,N/A,,Clear,0,2013-09-24 07:35:00
2:55 AM,67.8,61.2,79,29.89,10.0,Calm,Calm,-,N/A,,Clear,0,2013-09-24 07:55:00
3:15 AM,67.1,61.9,83,29.89,10.0,Calm,Calm,-,N/A,,Clear,0,2013-09-24 08:15:00
3:35 AM,66.7,61.9,84,29.89,10.0,Calm,Calm,-,N/A,,Clear,0,2013-09-24 08:35:00
3:55 AM,66.4,61.7,85,29.89,10.0,Calm,Calm,-,N/A,,Clear,0,2013-09-24 08:55:00
4:35 AM,66.6,60.4,81,29.89,10.0,Calm,Calm,-,N/A,,Clear,0,2013-09-24 09:35:00
4:55 AM,66.2,60.8,83,29.89,10.0,Calm,Calm,-,N/A,,Clear,0,2013-09-24 09:55:00
5:15 AM,64.8,60.4,86,29.90,10.0,North,3.5,-,N/A,,Clear,360,2013-09-24 10:15:00
5:35 AM,64.9,59.9,84,29.90,10.0,Calm,Calm,-,N/A,,Clear,0,2013-09-24 10:35:00
5:55 AM,64.2,59.9,86,29.90,10.0,Calm,Calm,-,N/A,,Clear,0,2013-09-24 10:55:00
6:15 AM,64.6,59.5,84,29.90,10.0,Calm,Calm,-,N/A,,Clear,0,2013-09-24 11:15:00
6:35 AM,64.9,59.2,82,29.89,10.0,Calm,Calm,-,N/A,,Clear,0,2013-09-24 11:35:00
6:55 AM,64.8,59.2,82,29.89,10.0,Calm,Calm,-,N/A,,Clear,0,2013-09-24 11:55:00
7:15 AM,64.4,59.2,83,29.90,10.0,Calm,Calm,-,N/A,,Clear,0,2013-09-24 12:15:00
7:35 AM,64.4,59.2,83,29.90,10.0,Calm,Calm,-,N/A,,Clear,0,2013-09-24 12:35:00
7:55 AM,66.2,59.5,79,29.90,10.0,Calm,Calm,-,N/A,,Clear,0,2013-09-24 12:55:00
8:15 AM,67.1,60.4,79,29.90,10.0,Calm,Calm,-,N/A,,Clear,0,2013-09-24 13:15:00
8:35 AM,68.9,61.3,77,29.91,10.0,Calm,Calm,-,N/A,,Clear,0,2013-09-24 13:35:00
8:55 AM,70.9,62.4,75,29.91,10.0,Calm,Calm,-,N/A,,Clear,0,2013-09-24 13:55:00
9:15 AM,73.6,62.4,68,29.91,10.0,Calm,Calm,-,N/A,,Clear,0,2013-09-24 14:15:00
9:35 AM,76.8,62.1,60,29.92,10.0,WNW,3.5,-,N/A,,Clear,300,2013-09-24 14:35:00
9:55 AM,80.2,63.1,56,29.92,10.0,West,6.9,-,N/A,,Clear,260,2013-09-24 14:55:00
10:15 AM,82.0,63.5,53,29.92,10.0,West,6.9,-,N/A,,Clear,270,2013-09-24 15:15:00
10:35 AM,83.7,63.5,51,29.92,10.0,WNW,8.1,-,N/A,,Clear,290,2013-09-24 15:35:00
10:55 AM,85.3,63.5,48,29.92,10.0,WNW,12.7,-,N/A,,Clear,300,2013-09-24 15:55:00
11:15 AM,85.5,63.1,47,29.92,10.0,WNW,12.7,19.6,N/A,,Clear,290,2013-09-24 16:15:00
11:35 AM,87.4,62.4,43,29.91,10.0,NW,12.7,18.4,N/A,,Clear,320,2013-09-24 16:35:00
12:15 PM,89.4,59.5,36,29.90,10.0,WNW,11.5,19.6,N/A,,Clear,290,2013-09-24 17:15:00
12:55 PM,91.2,55.8,30,29.89,10.0,WNW,11.5,18.4,N/A,,Clear,300,2013-09-24 17:55:00
1:15 PM,92.8,55.4,28,29.89,10.0,WNW,13.8,-,N/A,,Clear,300,2013-09-24 18:15:00
1:35 PM,93.4,50.2,23,29.88,10.0,NW,11.5,19.6,N/A,,Clear,320,2013-09-24 18:35:00
1:55 PM,94.8,49.5,21,29.87,10.0,NW,12.7,20.7,N/A,,Clear,320,2013-09-24 18:55:00
2:15 PM,95.2,48.2,20,29.86,10.0,WNW,12.7,18.4,N/A,,Clear,300,2013-09-24 19:15:00
2:35 PM,95.9,44.1,17,29.85,10.0,North,12.7,18.4,N/A,,Clear,350,2013-09-24 19:35:00
2:55 PM,96.3,43.7,16,29.85,10.0,NW,15.0,19.6,N/A,,Clear,310,2013-09-24 19:55:00
3:15 PM,95.5,44.4,17,29.85,10.0,NW,15.0,21.9,N/A,,Clear,320,2013-09-24 20:15:00
3:35 PM,95.9,45.0,17,29.85,10.0,NW,17.3,20.7,N/A,,Clear,310,2013-09-24 20:35:00
3:55 PM,95.2,44.2,17,29.84,10.0,NW,16.1,24.2,N/A,,Clear,320,2013-09-24 20:55:00
4:15 PM,95.0,45.3,18,29.84,10.0,NW,15.0,25.3,N/A,,Clear,320,2013-09-24 21:15:00
4:35 PM,95.0,46.4,19,29.83,10.0,NNW,15.0,18.4,N/A,,Clear,330,2013-09-24 21:35:00
4:55 PM,95.0,44.2,17,29.83,10.0,NNW,18.4,21.9,N/A,,Clear,340,2013-09-24 21:55:00
5:15 PM,94.1,41.7,16,29.83,10.0,NNW,15.0,25.3,N/A,,Clear,340,2013-09-24 22:15:00
5:35 PM,93.6,41.5,16,29.83,10.0,NW,12.7,23.0,N/A,,Clear,320,2013-09-24 22:35:00
5:55 PM,92.7,41.2,17,29.83,10.0,NNW,13.8,20.7,N/A,,Clear,330,2013-09-24 22:55:00
6:15 PM,91.8,41.0,17,29.83,10.0,NNW,13.8,19.6,N/A,,Clear,330,2013-09-24 23:15:00
6:35 PM,90.5,41.7,18,29.83,10.0,NNW,9.2,-,N/A,,Clear,330,2013-09-24 23:35:00
6:55 PM,88.5,44.1,21,29.83,10.0,NNW,6.9,-,N/A,,Clear,340,2013-09-24 23:55:00
7:15 PM,84.9,45.5,25,29.84,10.0,North,4.6,-,N/A,,Clear,350,2013-09-25 00:15:00
7:35 PM,83.1,45.7,27,29.84,10.0,NNW,3.5,-,N/A,,Clear,340,2013-09-25 00:35:00
7:55 PM,82.0,45.9,28,29.84,10.0,NNW,4.6,-,N/A,,Clear,340,2013-09-25 00:55:00
8:15 PM,80.2,46.4,30,29.84,10.0,NNW,4.6,-,N/A,,Clear,340,2013-09-25 01:15:00
8:35 PM,79.5,46.6,31,29.84,10.0,NNW,3.5,-,N/A,,Clear,340,2013-09-25 01:35:00
8:55 PM,78.6,46.4,32,29.85,10.0,NNW,3.5,-,N/A,,Clear,340,2013-09-25 01:55:00
9:15 PM,78.1,46.6,33,29.86,10.0,NNW,3.5,-,N/A,,Clear,340,2013-09-25 02:15:00
9:35 PM,76.8,47.5,35,29.86,10.0,NNW,4.6,-,N/A,,Clear,340,2013-09-25 02:35:00
9:55 PM,77.0,48.6,37,29.87,10.0,North,3.5,-,N/A,,Clear,360,2013-09-25 02:55:00
10:15 PM,76.5,48.6,37,29.87,10.0,Calm,Calm,-,N/A,,Clear,0,2013-09-25 03:15:00
10:35 PM,75.6,49.1,39,29.87,10.0,North,3.5,-,N/A,,Clear,360,2013-09-25 03:35:00
10:55 PM,74.7,49.5,41,29.87,10.0,Calm,Calm,-,N/A,,Clear,0,2013-09-25 03:55:00
11:15 PM,74.3,49.8,42,29.87,10.0,Calm,Calm,-,N/A,,Clear,0,2013-09-25 04:15:00
11:35 PM,73.6,50.5,44,29.86,10.0,Calm,Calm,-,N/A,,Clear,0,2013-09-25 04:35:00
11:55 PM,73.4,51.1,45,29.87,10.0,Calm,Calm,-,N/A,,Clear,0,2013-09-25 04:55:00